| time (UTC) | temp C | wind direction | speed KPH | gust KPH | rain 1hr cm | rain 24hr cm | rain mn cm | humidity % | barometer mb |
| 20260505041746 | 22 | 153 | 1.6 | 3.2 | 0.00 | 0.00 | 0.00 | 80 | 1009.0 |
| 20260505041243 | 22 | 185 | 0.0 | 0.0 | 0.00 | 0.00 | 0.00 | 80 | 1009.2 |
| 20260505040741 | 22 | 164 | 0.0 | 0.0 | 0.00 | 0.00 | 0.00 | 79 | 1009.0 |
| 20260505040238 | 22 | 161 | 0.0 | 0.0 | 0.00 | 0.00 | 0.00 | 79 | 1009.2 |
| 20260505035735 | 22 | 153 | 0.0 | 0.0 | 0.00 | 0.00 | 0.00 | 79 | 1009.3 |
| 20260505035231 | 22 | 156 | 1.6 | 3.2 | 0.00 | 0.00 | 0.00 | 79 | 1009.1 |
| 20260505034728 | 22 | 153 | 0.0 | 0.0 | 0.00 | 0.00 | 0.00 | 79 | 1009.4 |
| 20260505034224 | 22 | 49 | 0.0 | 0.0 | 0.00 | 0.00 | 0.00 | 78 | 1009.3 |
| 20260505033721 | 22 | 153 | 0.0 | 0.0 | 0.00 | 0.00 | 0.00 | 78 | 1009.2 |
| 20260505033219 | 22 | 152 | 0.0 | 0.0 | 0.00 | 0.00 | 0.00 | 78 | 1009.3 |
| 20260505032717 | 23 | 196 | 0.0 | 1.6 | 0.00 | 0.00 | 0.00 | 77 | 1009.2 |
| 20260505032212 | 23 | 188 | 1.6 | 1.6 | 0.00 | 0.00 | 0.00 | 77 | 1009.3 |
| 20260505031710 | 23 | 117 | 1.6 | 3.2 | 0.00 | 0.00 | 0.00 | 77 | 1009.5 |
| 20260505031206 | 23 | 169 | 4.8 | 8.0 | 0.00 | 0.00 | 0.00 | 77 | 1009.3 |
| 20260505030703 | 23 | 157 | 0.0 | 1.6 | 0.00 | 0.00 | 0.00 | 77 | 1009.2 |
| 20260505030159 | 23 | 162 | 0.0 | 0.0 | 0.00 | 0.00 | 0.00 | 76 | 1009.3 |
| 20260505025655 | 23 | 187 | 0.0 | 0.0 | 0.00 | 0.00 | 0.00 | 76 | 1009.5 |
| 20260505025154 | 23 | 158 | 4.8 | 9.7 | 0.00 | 0.00 | 0.00 | 76 | 1009.3 |
| 20260505024651 | 23 | 117 | 8.0 | 12.9 | 0.00 | 0.00 | 0.00 | 76 | 1009.1 |
| 20260505024148 | 23 | 153 | 0.0 | 0.0 | 0.00 | 0.00 | 0.00 | 76 | 1009.1 |
| 20260505023646 | 23 | 149 | 0.0 | 1.6 | 0.00 | 0.00 | 0.00 | 76 | 1009.1 |
| 20260505023143 | 23 | 170 | 0.0 | 0.0 | 0.00 | 0.00 | 0.00 | 76 | 1009.1 |
| 20260505022640 | 23 | 162 | 0.0 | 0.0 | 0.00 | 0.00 | 0.00 | 76 | 1009.0 |
| 20260505022137 | 23 | 168 | 1.6 | 3.2 | 0.00 | 0.00 | 0.00 | 76 | 1009.0 |
| 20260505021634 | 23 | 142 | 0.0 | 0.0 | 0.00 | 0.00 | 0.00 | 76 | 1009.3 |
| 20260505021131 | 23 | 125 | 0.0 | 1.6 | 0.00 | 0.00 | 0.00 | 76 | 1009.0 |
| 20260505020626 | 23 | 147 | 1.6 | 1.6 | 0.00 | 0.00 | 0.00 | 75 | 1009.2 |
| 20260505020122 | 23 | 151 | 0.0 | 0.0 | 0.00 | 0.00 | 0.00 | 75 | 1009.0 |
| 20260505015620 | 23 | 161 | 0.0 | 0.0 | 0.00 | 0.00 | 0.00 | 75 | 1009.0 |
| 20260505015116 | 23 | 176 | 1.6 | 3.2 | 0.00 | 0.00 | 0.00 | 75 | 1009.0 |
| 20260505014613 | 23 | 280 | 1.6 | 3.2 | 0.00 | 0.00 | 0.00 | 75 | 1008.8 |
| 20260505014110 | 23 | 187 | 1.6 | 1.6 | 0.00 | 0.00 | 0.00 | 74 | 1008.9 |
| 20260505013608 | 24 | 151 | 0.0 | 0.0 | 0.00 | 0.00 | 0.00 | 74 | 1008.7 |
| 20260505013104 | 24 | 240 | 1.6 | 1.6 | 0.00 | 0.00 | 0.00 | 73 | 1008.8 |
| 20260505012603 | 24 | 149 | 1.6 | 3.2 | 0.00 | 0.00 | 0.00 | 73 | 1008.5 |
| 20260505012059 | 24 | 98 | 0.0 | 0.0 | 0.00 | 0.00 | 0.00 | 73 | 1008.5 |
| 20260505011554 | 24 | 149 | 1.6 | 3.2 | 0.00 | 0.00 | 0.00 | 73 | 1008.5 |
| 20260505011052 | 25 | 152 | 0.0 | 1.6 | 0.00 | 0.00 | 0.00 | 72 | 1008.6 |
| 20260505010547 | 25 | 172 | 0.0 | 0.0 | 0.00 | 0.00 | 0.00 | 72 | 1008.5 |
| 20260505010044 | 25 | 163 | 0.0 | 1.6 | 0.00 | 0.00 | 0.00 | 72 | 1008.6 |
| 20260505005540 | 25 | 156 | 0.0 | 1.6 | 0.00 | 0.00 | 0.00 | 72 | 1008.5 |
| 20260505005038 | 25 | 168 | 1.6 | 1.6 | 0.00 | 0.00 | 0.00 | 71 | 1008.9 |
| 20260505004535 | 25 | 178 | 0.0 | 0.0 | 0.00 | 0.00 | 0.00 | 71 | 1008.8 |
| 20260505004032 | 25 | 227 | 3.2 | 3.2 | 0.00 | 0.00 | 0.00 | 71 | 1008.7 |
| 20260505003529 | 25 | 217 | 0.0 | 0.0 | 0.00 | 0.00 | 0.00 | 70 | 1008.7 |
| 20260505003026 | 25 | 212 | 0.0 | 1.6 | 0.00 | 0.00 | 0.00 | 70 | 1008.6 |
| 20260505002521 | 25 | 193 | 4.8 | 4.8 | 0.00 | 0.00 | 0.00 | 70 | 1008.6 |
| 20260505002020 | 25 | 137 | 0.0 | 0.0 | 0.00 | 0.00 | 0.00 | 69 | 1008.6 |
| 20260505001517 | 25 | 151 | 1.6 | 8.0 | 0.00 | 0.00 | 0.00 | 69 | 1008.6 |
| 20260505001014 | 25 | 162 | 1.6 | 4.8 | 0.00 | 0.00 | 0.00 | 69 | 1008.7 |
| 20260505000512 | 25 | 158 | 0.0 | 1.6 | 0.00 | 0.00 | 0.00 | 68 | 1008.8 |
| 20260505000009 | 25 | 140 | 3.2 | 3.2 | 0.00 | 0.00 | 0.00 | 68 | 1008.8 |
| 20260504235506 | 26 | 169 | 4.8 | 11.3 | 0.00 | 0.00 | 0.00 | 66 | 1008.6 |
| 20260504235002 | 26 | 153 | 0.0 | 0.0 | 0.00 | 0.00 | 0.00 | 67 | 1008.6 |
| 20260504234459 | 26 | 172 | 1.6 | 1.6 | 0.00 | 0.00 | 0.00 | 66 | 1008.8 |
| 20260504233956 | 26 | 159 | 0.0 | 1.6 | 0.00 | 0.00 | 0.00 | 66 | 1008.7 |
| 20260504233451 | 26 | 204 | 0.0 | 0.0 | 0.00 | 0.00 | 0.00 | 66 | 1008.7 |
| 20260504232949 | 26 | 261 | 3.2 | 3.2 | 0.00 | 0.00 | 0.00 | 66 | 1008.8 |
| 20260504232446 | 26 | 297 | 0.0 | 3.2 | 0.00 | 0.00 | 0.00 | 65 | 1008.9 |
| 20260504231943 | 26 | 227 | 1.6 | 1.6 | 0.00 | 0.00 | 0.00 | 65 | 1008.8 |
| 20260504231439 | 26 | 202 | 4.8 | 8.0 | 0.00 | 0.00 | 0.00 | 64 | 1009.0 |
| 20260504230935 | 27 | 203 | 4.8 | 8.0 | 0.00 | 0.00 | 0.00 | 64 | 1009.0 |
| 20260504230432 | 27 | 146 | 0.0 | 1.6 | 0.00 | 0.00 | 0.00 | 64 | 1009.2 |
| 20260504225932 | 27 | 156 | 1.6 | 3.2 | 0.00 | 0.00 | 0.00 | 63 | 1009.3 |
| 20260504225428 | 26 | 173 | 0.0 | 3.2 | 0.00 | 0.00 | 0.00 | 63 | 1009.1 |
| 20260504224925 | 27 | 242 | 1.6 | 4.8 | 0.00 | 0.00 | 0.00 | 64 | 1009.3 |
| 20260504224422 | 27 | 195 | 1.6 | 4.8 | 0.00 | 0.00 | 0.00 | 63 | 1009.2 |
| 20260504223919 | 27 | 153 | 0.0 | 0.0 | 0.00 | 0.00 | 0.00 | 63 | 1009.2 |
| 20260504223414 | 27 | 249 | 3.2 | 3.2 | 0.00 | 0.00 | 0.00 | 62 | 1009.3 |
| 20260504222910 | 27 | 258 | 1.6 | 4.8 | 0.00 | 0.00 | 0.00 | 61 | 1009.4 |
| 20260504222408 | 26 | 201 | 4.8 | 4.8 | 0.00 | 0.00 | 0.00 | 63 | 1009.6 |
| 20260504221906 | 27 | 138 | 0.0 | 0.0 | 0.00 | 0.00 | 0.00 | 62 | 1009.4 |
| 20260504221402 | 27 | 214 | 4.8 | 4.8 | 0.00 | 0.00 | 0.00 | 61 | 1009.6 |
| 20260504220900 | 27 | 245 | 0.0 | 1.6 | 0.00 | 0.00 | 0.00 | 62 | 1009.4 |
| 20260504220356 | 27 | 167 | 0.0 | 0.0 | 0.00 | 0.00 | 0.00 | 61 | 1009.7 |
| 20260504215853 | 27 | 170 | 3.2 | 3.2 | 0.00 | 0.00 | 0.00 | 61 | 1009.8 |
| 20260504215349 | 27 | 156 | 0.0 | 0.0 | 0.00 | 0.00 | 0.00 | 62 | 1009.7 |
| 20260504214846 | 27 | 196 | 0.0 | 0.0 | 0.00 | 0.00 | 0.00 | 61 | 1009.7 |
| 20260504214343 | 27 | 154 | 4.8 | 8.0 | 0.00 | 0.00 | 0.00 | 60 | 1009.8 |
| 20260504213839 | 27 | 153 | 3.2 | 8.0 | 0.00 | 0.00 | 0.00 | 61 | 1010.0 |
| 20260504213335 | 27 | 169 | 3.2 | 4.8 | 0.00 | 0.00 | 0.00 | 60 | 1010.1 |
| 20260504212833 | 28 | 162 | 0.0 | 0.0 | 0.00 | 0.00 | 0.00 | 58 | 1010.0 |
| 20260504212329 | 28 | 169 | 0.0 | 0.0 | 0.00 | 0.00 | 0.00 | 57 | 1010.0 |
| 20260504211827 | 28 | 158 | 0.0 | 0.0 | 0.00 | 0.00 | 0.00 | 59 | 1010.2 |
| 20260504211322 | 27 | 169 | 0.0 | 0.0 | 0.00 | 0.00 | 0.00 | 59 | 1010.2 |
| 20260504210820 | 28 | 205 | 3.2 | 4.8 | 0.00 | 0.00 | 0.00 | 58 | 1010.4 |
| 20260504210317 | 28 | 241 | 1.6 | 3.2 | 0.00 | 0.00 | 0.00 | 58 | 1010.5 |
| 20260504205814 | 28 | 153 | 4.8 | 8.0 | 0.00 | 0.00 | 0.00 | 59 | 1010.6 |
| 20260504205312 | 27 | 174 | 1.6 | 1.6 | 0.00 | 0.00 | 0.00 | 59 | 1010.6 |
| 20260504204810 | 27 | 175 | 0.0 | 1.6 | 0.00 | 0.00 | 0.00 | 59 | 1010.7 |
| 20260504204308 | 27 | 265 | 0.0 | 3.2 | 0.00 | 0.00 | 0.00 | 58 | 1010.8 |
| 20260504203807 | 28 | 153 | 4.8 | 4.8 | 0.00 | 0.00 | 0.00 | 57 | 1010.8 |
| 20260504203304 | 28 | 256 | 1.6 | 3.2 | 0.00 | 0.00 | 0.00 | 56 | 1011.1 |
| 20260504202758 | 27 | 160 | 1.6 | 3.2 | 0.00 | 0.00 | 0.00 | 58 | 1011.1 |
| 20260504202256 | 28 | 166 | 0.0 | 1.6 | 0.00 | 0.00 | 0.00 | 57 | 1011.2 |
| 20260504201753 | 27 | 171 | 3.2 | 3.2 | 0.00 | 0.00 | 0.00 | 57 | 1011.4 |
| 20260504201250 | 27 | 203 | 0.0 | 0.0 | 0.00 | 0.00 | 0.00 | 60 | 1011.4 |
| 20260504200748 | 27 | 136 | 6.4 | 9.7 | 0.00 | 0.00 | 0.00 | 58 | 1011.6 |
| 20260504200243 | 27 | 182 | 4.8 | 4.8 | 0.00 | 0.00 | 0.00 | 56 | 1011.4 |
| 20260504195740 | 26 | 199 | 1.6 | 3.2 | 0.00 | 0.00 | 0.00 | 58 | 1011.5 |
| 20260504195236 | 26 | 177 | 0.0 | 0.0 | 0.00 | 0.00 | 0.00 | 58 | 1011.7 |
| 20260504194733 | 27 | 179 | 0.0 | 1.6 | 0.00 | 0.00 | 0.00 | 58 | 1011.7 |
| 20260504194229 | 27 | 249 | 6.4 | 11.3 | 0.00 | 0.00 | 0.00 | 57 | 1011.7 |
| 20260504193726 | 26 | 146 | 1.6 | 1.6 | 0.00 | 0.00 | 0.00 | 59 | 1011.7 |
| 20260504193224 | 27 | 195 | 4.8 | 8.0 | 0.00 | 0.00 | 0.00 | 58 | 1011.8 |
| 20260504192722 | 27 | 147 | 1.6 | 1.6 | 0.00 | 0.00 | 0.00 | 57 | 1012.3 |
| 20260504192219 | 27 | 167 | 0.0 | 0.0 | 0.00 | 0.00 | 0.00 | 58 | 1012.3 |
| 20260504191718 | 28 | 69 | 1.6 | 3.2 | 0.00 | 0.00 | 0.00 | 56 | 1012.3 |
| 20260504191214 | 27 | 219 | 0.0 | 1.6 | 0.00 | 0.00 | 0.00 | 58 | 1012.3 |
| 20260504190710 | 28 | 198 | 3.2 | 3.2 | 0.00 | 0.00 | 0.00 | 56 | 1012.3 |
| 20260504190206 | 28 | 171 | 4.8 | 9.7 | 0.00 | 0.00 | 0.00 | 56 | 1012.6 |
| 20260504185703 | 27 | 174 | 0.0 | 0.0 | 0.00 | 0.00 | 0.00 | 57 | 1012.6 |
| 20260504185159 | 27 | 135 | 1.6 | 3.2 | 0.00 | 0.00 | 0.00 | 57 | 1012.9 |
| 20260504184655 | 28 | 199 | 3.2 | 3.2 | 0.00 | 0.00 | 0.00 | 55 | 1013.0 |
| 20260504184151 | 27 | 199 | 0.0 | 0.0 | 0.00 | 0.00 | 0.00 | 56 | 1012.9 |
| 20260504183648 | 27 | 150 | 0.0 | 1.6 | 0.00 | 0.00 | 0.00 | 56 | 1012.8 |
| 20260504183145 | 27 | 227 | 1.6 | 1.6 | 0.00 | 0.00 | 0.00 | 56 | 1012.6 |
| 20260504182643 | 27 | 175 | 0.0 | 0.0 | 0.00 | 0.00 | 0.00 | 57 | 1013.2 |
| 20260504182140 | 27 | 177 | 3.2 | 3.2 | 0.00 | 0.00 | 0.00 | 54 | 1013.0 |
| 20260504181637 | 27 | 169 | 0.0 | 0.0 | 0.00 | 0.00 | 0.00 | 56 | 1013.1 |
| 20260504181135 | 27 | 251 | 4.8 | 4.8 | 0.00 | 0.00 | 0.00 | 54 | 1013.0 |
| 20260504180634 | 27 | 168 | 0.0 | 0.0 | 0.00 | 0.00 | 0.00 | 55 | 1013.0 |
| 20260504180132 | 27 | 181 | 0.0 | 1.6 | 0.00 | 0.00 | 0.00 | 55 | 1013.3 |
| 20260504175629 | 27 | 164 | 0.0 | 0.0 | 0.00 | 0.00 | 0.00 | 54 | 1013.2 |
| 20260504175125 | 27 | 151 | 1.6 | 1.6 | 0.00 | 0.00 | 0.00 | 55 | 1013.2 |
| 20260504174624 | 27 | 185 | 1.6 | 3.2 | 0.00 | 0.00 | 0.00 | 55 | 1013.3 |
| 20260504174120 | 26 | 166 | 1.6 | 3.2 | 0.00 | 0.00 | 0.00 | 58 | 1013.6 |
| 20260504173617 | 27 | 240 | 4.8 | 9.7 | 0.00 | 0.00 | 0.00 | 57 | 1013.5 |
| 20260504173115 | 27 | 172 | 1.6 | 3.2 | 0.00 | 0.00 | 0.00 | 56 | 1013.5 |
| 20260504172611 | 26 | 160 | 0.0 | 1.6 | 0.00 | 0.00 | 0.00 | 56 | 1013.9 |
| 20260504172108 | 27 | 171 | 6.4 | 9.7 | 0.00 | 0.00 | 0.00 | 56 | 1013.6 |
| 20260504171604 | 26 | 184 | 3.2 | 4.8 | 0.00 | 0.00 | 0.00 | 57 | 1013.9 |
| 20260504171102 | 25 | 203 | 4.8 | 4.8 | 0.00 | 0.00 | 0.00 | 59 | 1014.0 |
| 20260504170557 | 26 | 185 | 4.8 | 8.0 | 0.00 | 0.00 | 0.00 | 58 | 1013.8 |
| 20260504150941 | 23 | 82 | 4.8 | 8.0 | 0.00 | 0.00 | 0.00 | 65 | 1015.2 |
| 20260504150438 | 22 | 159 | 3.2 | 3.2 | 0.00 | 0.00 | 0.00 | 66 | 1015.1 |
| 20260504140904 | 21 | 261 | 4.8 | 9.7 | 0.00 | 0.00 | 0.00 | 68 | 1015.2 |
| 20260504140400 | 21 | 151 | 0.0 | 0.0 | 0.00 | 0.00 | 0.00 | 69 | 1015.0 |
| 20260504130325 | 18 | 138 | 1.6 | 4.8 | 0.00 | 0.00 | 0.00 | 73 | 1014.9 |
| 20260504120248 | 16 | 157 | 1.6 | 3.2 | 0.00 | 0.00 | 0.00 | 77 | 1014.7 |
| 20260504110716 | 17 | 152 | 1.6 | 3.2 | 0.00 | 0.00 | 0.00 | 74 | 1014.0 |
| 20260504110212 | 17 | 156 | 6.4 | 8.0 | 0.00 | 0.00 | 0.00 | 74 | 1014.2 |
| 20260504100131 | 16 | 141 | 0.0 | 0.0 | 0.00 | 0.00 | 0.00 | 76 | 1014.6 |
| 20260504081524 | 17 | 155 | 0.0 | 0.0 | 0.00 | 0.00 | 0.00 | 75 | 1015.3 |
| 20260504081019 | 17 | 151 | 0.0 | 0.0 | 0.00 | 0.00 | 0.00 | 75 | 1015.7 |
| 20260504080516 | 17 | 187 | 1.6 | 1.6 | 0.00 | 0.00 | 0.00 | 75 | 1015.5 |
| 20260504050328 | 18 | 154 | 0.0 | 0.0 | 0.00 | 0.00 | 0.00 | 70 | 1017.1 |